Regional Weather Roundup
Issued by NWS Goodland, KS

Home | Current Version | Previous Version | Graphics & Text | Print | Product List | Glossary On
Versions: 1 2 3 4 5 6 7 8 9 10 11 12 13 14 15 16 17 18 19 20 21 22 23 24 25 26 27 28 29 30 31 32 33 34 35 36 37 38 39 40 41 42 43 44 45 46 47 48 49 50
000
ASUS43 KGLD 270759
RWRGLD

GOODLAND FORECAST AREA HOURLY WEATHER ROUNDUP
NATIONAL WEATHER SERVICE GOODLAND KS
200 AM MDT MON APR 27 2015

...OFFICIAL OBSERVATIONS...

CITY           SKY/WX    TMP DP  RH WIND       PRES   REMARKS
GOODLAND KS    CLOUDY    44  43  96 NE9       30.08S
HILL CITY KS   PTCLDY    45  42  89 N14       30.07S
IMPERIAL NEB   CLOUDY    46  42  86 NE7       30.12S
MCCOOK NEB     PTCLDY    45  41  86 NE9       30.10F
AKRON CO       LGT RAIN  41  41 100 E9        30.11S FOG
BURLINGTON CO  CLOUDY    43  41  93 NE15      30.07F
LIMON CO       CLOUDY    39  38  96 NE12      30.08S
$$

...UNOFFICIAL OBSERVATIONS...

CITY           SKY/WX    TMP DP  RH WIND       PRES   REMARKS
GOVE KS          N/A     47  32  56 MISG        N/A
LENORA KS        N/A     42  32  68 MISG        N/A
SHARON SPRINGS   N/A     42  41  97 N14G21      N/A
TRIBUNE KS     CLOUDY    45  45 100 NE13      30.05R
KIT CARSON CO    N/A     42  40  91 MISG        N/A
$$


USA.gov is the U.S. government's official web portal to all federal, state and local government web resources and services.